Location: Arborea
(39.7744°N, 8.5819°E)
Time: 04:02:26
(UTC+00:00)

Cosmos 1000 Rocket - Pass Details

Date: 24 October 2021
Orbit: 954 x 991 km, 82.9° (Epoch: 29 November)

Event Time Altitude Azimuth Distance (km) Brightness Sun altitude
Rises 16:55:27 0° 355° (N) 3,651 7.4 -4.9°
Reaches altitude 10° 16:57:58 10° 358° (N) 2,705 6.8 -5.4°
Maximum altitude 17:04:08 70° 81° (E) 1,030 4.5 -6.6°
Drops below altitude 10° 17:10:20 10° 165° (SSE) 2,713 6.8 -7.7°
Sets 17:12:51 0° 168° (SSE) 3,662 7.5 -8.2°
